Flag for Brazil Weather past 2 weeks in Fortaleza, Ceará, Brazil

Now
79 °F

Clear.


Feels Like: 81 °F
Forecast: N/A
Wind: 8 mph from East

Location: Fortaleza Aeropor-To

Current Time: Oct 22, 2014 at 7:42:45 PM

Latest Report: Oct 22, 2014 at 7:00 PM


Visibility: 10 mi

Pressure: 29.92 "Hg

Humidity: 70%

Dew point: 68 °F

Location of FortalezaLocation

Historic Weather in Fortaleza — Graph

°F

Fortaleza temperature yesterday

Maximum temperature yesterday: 84 °F (at 9:00 AM)
Minimum temperature yesterday: 77 °F (at 2:00 AM)
Average temperature yesterday: 80 °F

Past Weeks' High & Low Weather Summary

 TemperatureHumidityPressure
High88 °F (Oct 8, 11:00 AM)79% (Oct 20, 4:00 AM)30.01 "Hg (Oct 20, 4:00 AM)
Low75 °F (Oct 9, 6:00 AM)38% (Oct 9, 10:00 AM)29.77 "Hg (Oct 9, 3:00 PM)
Average81 °F62%29.91 "Hg
* Reported Oct 7 6:00 PM — Oct 22 6:00 PM, Fortaleza, Weather by CustomWeather, © 2014

Note: Actual official high and low records may vary slightly from our data, if they occured in-between our weather recording intervals... More about our weather records

Advertising

Fortaleza weather history for previous 24 hours

 ConditionsComfort  
Time TempWeatherWind HumidityBarometerVisibility
6:00 PM
Oct 22
79 °FSunny.9 mph70%29.89 "Hg10 mi
5:00 PM81 °FSunny.14 mph62%29.89 "Hg10 mi
4:00 PM82 °FSunny.16 mph58%29.86 "Hg10 mi
3:00 PM84 °FSunny.18 mph55%29.86 "Hg10 mi
2:00 PM86 °FSunny.17 mph49%29.89 "Hg10 mi
1:00 PM86 °FPassing clouds.20 mph46%29.89 "HgN/A
12:00 PM86 °FScattered clouds.23 mph46%29.92 "HgN/A
11:00 AM86 °FScattered clouds.22 mph52%29.95 "HgN/A
10:00 AM86 °FScattered clouds.20 mph52%29.98 "HgN/A
9:00 AM82 °FScattered clouds.20 mph58%29.98 "HgN/A
8:00 AM82 °FScattered clouds.21 mph55%29.95 "HgN/A
7:00 AM81 °FPartly sunny.20 mph62%29.95 "HgN/A
6:00 AM79 °FPassing clouds.15 mph74%29.92 "HgN/A
5:00 AM77 °FPassing clouds.13 mph74%29.92 "HgN/A
4:00 AM79 °FPassing clouds.15 mph70%29.89 "HgN/A
3:00 AM79 °FPassing clouds.14 mph70%29.89 "HgN/A
1:00 AM79 °FPassing clouds.16 mph65%29.89 "HgN/A
12:00 AM79 °FPassing clouds.15 mph65%29.92 "HgN/A
11:00 PM
Oct 21
79 °FPassing clouds.16 mph65%29.92 "HgN/A
10:00 PM79 °FPassing clouds.14 mph65%29.95 "HgN/A
9:00 PM79 °FPassing clouds.13 mph65%29.95 "HgN/A
8:00 PM79 °FPassing clouds.12 mph70%29.92 "HgN/A
7:00 PM79 °FPassing clouds.10 mph70%29.89 "HgN/A
Weather by CustomWeather, © 2014

See weather overviewHow to use our weather pages